Regional Weather Roundup
Issued by NWS

Home | Current Version | Previous Version | Text Only | Print | Product List | Glossary Off
Versions: 1 2 3 4 5 6 7 8 9 10 11 12 13 14 15 16 17 18 19 20 21 22 23 24 25 26 27 28 29 30 31 32 33 34 35 36 37 38 39 40 41 42 43 44 45 46 47 48 49 50

000
ASUS45 KPSR 060010
RWRAZ

ARIZONA REGIONAL HOURLY WEATHER ROUNDUP
NATIONAL WEATHER SERVICE PHOENIX AZ
500 PM MST THU MAR 05 2015

NOTE: FAIR INDICATES FEW OR NO CLOUDS BELOW 12,000 FEET WITH NO
SIGNIFICANT WEATHER AND/OR OBSTRUCTIONS TO VISIBILITY.

AZZ001>003-036-060100-
NORTHWEST ARIZONA

CITY           SKY/WX    TMP DP  RH WIND       PRES   REMARKS
BULLHEAD CITY  SUNNY     68  19  15 N24G30    30.23F
KINGMAN        SUNNY     61  24  24 N10       30.28F
6HR MIN TEMP:  52; 6HR MAX TEMP:  62;

$$

AZZ004>008-015-016-018-060100-
NORTH CENTRAL ARIZONA

CITY           SKY/WX    TMP DP  RH WIND       PRES   REMARKS
GRAND CANYON   SUNNY     48  -4  11 N5        30.36S
6HR MIN TEMP:  41; 6HR MAX TEMP:  50;

PRESCOTT       SUNNY     59   1   9 NW7       30.29S
6HR MIN TEMP:  45; 6HR MAX TEMP:  60;

FLAGSTAFF      SUNNY     44  15  31 E9        30.35S
6HR MIN TEMP:  38; 6HR MAX TEMP:  45;

PAYSON         SUNNY     57  23  26 W7        30.29S
PAGE           SUNNY     51  21  30 NE3       30.35S
6HR MIN TEMP:  41; 6HR MAX TEMP:  52;

$$

AZZ009>014-017-060100-
NORTHEAST ARIZONA

CITY           SKY/WX    TMP DP  RH WIND       PRES   REMARKS
WINSLOW        SUNNY     54   5  14 NW5       30.34S
6HR MIN TEMP:  41; 6HR MAX TEMP:  55;

SAINT JOHNS    SUNNY     55   4  12 NW12      30.29F
6HR MIN TEMP:  42; 6HR MAX TEMP:  56;

WINDOW ROCK    SUNNY     51   0  12 N12       30.33R
6HR MIN TEMP:  40; 6HR MAX TEMP:  53;

SHOW LOW       SUNNY     46   3  17 N14       30.34S
$$

AZZ023-060100-
GREATER PHOENIX AREA

CITY           SKY/WX    TMP DP  RH WIND       PRES   REMARKS
PHOENIX        SUNNY     74  12   9 CALM      30.14F
6HR MIN TEMP:  64; 6HR MAX TEMP:  75;

BUCKEYE        SUNNY     72  23  16 SW5       30.17F
GLENDALE       SUNNY     73   7   7 CALM      30.17F
LUKE AFB       SUNNY     73  12   9 CALM      30.15F
6HR MIN TEMP:  65; 6HR MAX TEMP:  74;

DEER VALLEY    SUNNY     73   7   7 CALM      30.15F
6HR MIN TEMP:  63; 6HR MAX TEMP:  73;

SCOTTSDALE     SUNNY     72   9   8 CALM      30.17F
6HR MIN TEMP:  63; 6HR MAX TEMP:  72;

MESA-FALCON    SUNNY     72   9   8 NW7       30.15F
MESA-GATEWAY   SUNNY     72  21  15 NW5       30.17F
CHANDLER       SUNNY     72  14  11 N6        30.16F
$$

AZZ027-028-060100-
SOUTHWEST MARICOPA COUNTY AND PINAL COUNTY

CITY           SKY/WX    TMP DP  RH WIND       PRES   REMARKS
CASA GRANDE    SUNNY     70  21  16 NE7       30.16F
6HR MIN TEMP:  63; 6HR MAX TEMP:  72;

GILA BEND      SUNNY     72  19  13 N7        30.15F
6HR MIN TEMP:  65; 6HR MAX TEMP:  74;

$$

AZZ503-504-507>509-060100-
SOUTHEAST ARIZONA

CITY           SKY/WX    TMP DP  RH WIND       PRES   REMARKS
TUCSON         SUNNY     69  14  12 E9        30.18S
6HR MIN TEMP:  62; 6HR MAX TEMP:  71;

DAVIS-MONTHAN  SUNNY     68  14  12 NE17      30.15F
6HR MIN TEMP:  61; 6HR MAX TEMP:  69;

RYAN FIELD       N/A     72  21  15 NE10      30.17S
NOGALES        SUNNY     65  18  16 NE16G23   30.17R
6HR MIN TEMP:  61; 6HR MAX TEMP:  68;

SIERRA VISTA   SUNNY     57  25  28 E16       30.22S
DOUGLAS        SUNNY     57  25  29 E18       30.24S
6HR MIN TEMP:  53; 6HR MAX TEMP:  59;

SAFFORD        SUNNY     63  16  16 SE9       30.23S
6HR MIN TEMP:  53; 6HR MAX TEMP:  64;

$$

AZZ020-021-025-026-031-060100-
SOUTHWEST ARIZONA

CITY           SKY/WX    TMP DP  RH WIND       PRES   REMARKS
YUMA           SUNNY     77  24  14 N10       30.15F
6HR MIN TEMP:  68; 6HR MAX TEMP:  78;

$$

CAZ031-033-041-043-047-048-061-060100-
SOUTHERN CALIFORNIA

CITY           SKY/WX    TMP DP  RH WIND       PRES   REMARKS
DOWNTOWN L.A.  SUNNY     73  28  18 W5        30.17F
6HR MIN TEMP:  69; 6HR MAX TEMP:  77;

L.A. AIRPORT   MOSUNNY   68  30  24 W13       30.18F
6HR MIN TEMP:  67; 6HR MAX TEMP:  73;

SAN DIEGO      SUNNY     74  34  23 NW10      30.15F
6HR MIN TEMP:  67; 6HR MAX TEMP:  75;

BURBANK        SUNNY     72  20  14 S10       30.17S
6HR MIN TEMP:  66; 6HR MAX TEMP:  76;

ONTARIO        MOSUNNY   74  22  14 W6        30.17F
6HR MIN TEMP:  64; 6HR MAX TEMP:  75;

RIVERSIDE      SUNNY     77  12   8 N8        30.16F
6HR MIN TEMP:  67; 6HR MAX TEMP:  79;

PALM SPRINGS   SUNNY     76  11   8 SE6       30.20F
6HR MIN TEMP:  69; 6HR MAX TEMP:  77;

EL CENTRO NAS  SUNNY     75  25  15 NW9       30.18F
6HR MIN TEMP:  68; 6HR MAX TEMP:  76;

IMPERIAL       SUNNY     75  29  18 VRB5      30.17F
6HR MIN TEMP:  67; 6HR MAX TEMP:  75;

BLYTHE         SUNNY     73  26  17 NW9       30.20F
6HR MIN TEMP:  62; 6HR MAX TEMP:  74;

NEEDLES        SUNNY     72  20  14 N15       30.22
6HR MIN TEMP:  62; 6HR MAX TEMP:  73;

$$

NVZ020-UTZ003-060100-
SOUTHERN NEVADA-UTAH

CITY           SKY/WX    TMP DP  RH WIND       PRES   REMARKS
LAS VEGAS      SUNNY     65  20  17 CALM      30.26F
6HR MIN TEMP:  54; 6HR MAX TEMP:  65;

SALT LAKE CITY MOSUNNY   48  20  32 N7        30.40F
6HR MIN TEMP:  39; 6HR MAX TEMP:  50;

$$

NMZ009-TXZ055-060100-
NEW MEXICO-WEST TEXAS

CITY           SKY/WX    TMP DP  RH WIND       PRES   REMARKS
ALBUQUERQUE    SUNNY     52   9  17 CALM      30.30S
6HR MIN TEMP:  38; 6HR MAX TEMP:  54;

EL PASO        SUNNY     49  20  31 VRB5      30.35S
6HR MIN TEMP:  39; 6HR MAX TEMP:  50;

$$


........................KEY........................
SKY/WX - SKY CONDITION/WEATHER
TMP    - TEMPERATURE IN FAHRENHEIT
DP     - DEW POINT IN FAHRENHEIT
RH     - RELATIVE HUMIDITY IN PERCENT
WIND   - DIRECTION AND SPEED IN MILES PER HOUR (MPH)
VRB    - VARIABLE WIND DIRECTION
PRES   - MEAN SEA LEVEL PRESSURE IN INCHES OF MERCURY
         F - FALLING PRESSURE   R - RISING PRESSURE
         S - STEADY PRESSURE
VSB    - VISIBILITY IN MILES
HX     - HEAT INDEX IN FAHRENHEIT
WCI    - WIND CHILL INDEX IN FAHRENHEIT
TC     - TEMPERATURE IN CELSIUS WHICH IS ALSO KNOWN AS
         TEMPERATURE IN CENTIGRADE
AFB    - AIR FORCE BASE
         LUKE AFB IS LUKE AIR FORCE BASE
         DAVIS-MONTHAN IS DAVIS-MONTHAN AIR FORCE BASE
NAS    - NAVAL AIR STATION
         EL CENTRO NAS IS EL CENTRO NAVAL AIR STATION
N/A    - NOT AVAILABLE



USA.gov is the U.S. government's official web portal to all federal, state and local government web resources and services.